STARLINK-35639

Last updated on Wed Dec 10 2025 00:02:05 GMT+0000 (Coordinated Universal Time)

1 66382U 25257C 25343.52513195 .00065760 00000+0 16377-2 0 9993 2 66382 53.1613 279.7502 0001415 74.1332 285.9828 15.39659565 5875
UTC large
Height (km)
Speed (km/s)
/
Latitude / Longitude
Inclination (degrees)
Orbital Period (minutes)
Azimuth
Elevation
Range (km)
Doppler Factor

Next 0 passes for location: London (51.5072 / 0.1276)

Sorry there are no passes over London.